When you browse on this site, cookies collect data to enhance your experience and personalize the content and advertising you see.
Visit our Privacy Policy to learn more. By continuing to use the site, you agree to this use of cookies and data.
  • In Hungary
  • List of Countries
  • For 7 days
  • Water Temperature
  • Weather Map
  • News
  • Weather Widgets
  • user-avatar
    Login

    Hourly Weather Svitavy

    Today, 25 August, Sunday

    Time Temperature Precipitation Wind Pressure Humidity
    00:00 +18°C° 0.4 mm 2 mps 727 mmHg 91%
    01:00 +19°C° 0.4 mm 1 mps 727 mmHg 91%
    02:00 +19°C° 0 mm 1 mps 727 mmHg 90%
    03:00 +19°C° 0 mm 1 mps 727 mmHg 90%
    04:00 +19°C° 0 mm 1 mps 727 mmHg 89%
    05:00 +20°C° 0.1 mm 1 mps 727 mmHg 87%
    06:00 +20°C° 0.1 mm 1 mps 727 mmHg 85%
    07:00 +21°C° 0.1 mm 1 mps 727 mmHg 83%
    08:00 +23°C° 0.1 mm 2 mps 727 mmHg 77%
    09:00 +25°C° 0.1 mm 2 mps 727 mmHg 71%
    10:00 +26°C° 0.1 mm 2 mps 728 mmHg 65%
    11:00 +27°C° 1 mm 3 mps 728 mmHg 63%
    12:00 +28°C° 1 mm 3 mps 727 mmHg 60%
    13:00 +29°C° 1 mm 3 mps 727 mmHg 57%
    14:00 +29°C° 1.6 mm 3 mps 727 mmHg 58%
    15:00 +28°C° 1.6 mm 2 mps 727 mmHg 59%
    16:00 +28°C° 1.6 mm 2 mps 727 mmHg 60%
    17:00 +27°C° 0.6 mm 2 mps 726 mmHg 67%
    18:00 +25°C° 0.6 mm 2 mps 726 mmHg 73%
    19:00 +23°C° 0.6 mm 2 mps 726 mmHg 79%
    20:00 +21°C° 0.2 mm 2 mps 726 mmHg 81%
    21:00 +20°C° 0.2 mm 2 mps 726 mmHg 84%
    22:00 +20°C° 0.2 mm 2 mps 727 mmHg 86%
    23:00 +19°C° 0 mm 2 mps 727 mmHg 87%

    Tomorrow, 26 August, Monday

    Time Temperature Precipitation Wind Pressure Humidity
    00:00 +20°C° 0 mm 1 mps 726 mmHg 87%
    01:00 +20°C° 0 mm 1 mps 726 mmHg 88%
    02:00 +20°C° 0 mm 1 mps 726 mmHg 87%
    03:00 +19°C° 0 mm 1 mps 726 mmHg 87%
    04:00 +17°C° 0 mm 0 mps 726 mmHg 86%
    05:00 +18°C° 0 mm 0 mps 726 mmHg 83%
    06:00 +21°C° 0 mm 1 mps 726 mmHg 81%
    07:00 +22°C° 0 mm 1 mps 726 mmHg 78%
    08:00 +24°C° 0 mm 1 mps 726 mmHg 72%
    09:00 +26°C° 0 mm 1 mps 727 mmHg 65%
    10:00 +27°C° 0 mm 1 mps 727 mmHg 59%
    11:00 +28°C° 0.1 mm 2 mps 727 mmHg 56%
    12:00 +29°C° 0.1 mm 2 mps 727 mmHg 53%
    13:00 +29°C° 0.1 mm 2 mps 726 mmHg 50%
    14:00 +29°C° 0.3 mm 2 mps 726 mmHg 52%
    15:00 +29°C° 0.3 mm 2 mps 726 mmHg 53%
    16:00 +29°C° 0.3 mm 2 mps 725 mmHg 55%
    17:00 +27°C° 0.4 mm 2 mps 725 mmHg 60%
    18:00 +26°C° 0.4 mm 2 mps 725 mmHg 65%
    19:00 +24°C° 0.4 mm 1 mps 725 mmHg 70%
    20:00 +23°C° 1.1 mm 1 mps 725 mmHg 75%
    21:00 +22°C° 1.1 mm 1 mps 725 mmHg 79%
    22:00 +21°C° 1.1 mm 1 mps 725 mmHg 83%
    23:00 +21°C° 0.3 mm 1 mps 725 mmHg 84%

    Day after tomorrow, 27 August, Tuesday

    Time Temperature Precipitation Wind Pressure Humidity
    00:00 +21°C° 0.3 mm 1 mps 725 mmHg 85%
    01:00 +21°C° 0.3 mm 1 mps 725 mmHg 86%
    02:00 +20°C° 0.3 mm 1 mps 725 mmHg 86%
    03:00 +20°C° 0.3 mm 1 mps 725 mmHg 86%
    04:00 +20°C° 0.3 mm 1 mps 725 mmHg 87%
    05:00 +21°C° 0.1 mm 1 mps 725 mmHg 85%
    06:00 +22°C° 0.1 mm 1 mps 725 mmHg 83%
    07:00 +23°C° 0.1 mm 1 mps 725 mmHg 81%
    08:00 +24°C° 0 mm 2 mps 726 mmHg 75%
    09:00 +26°C° 0 mm 2 mps 726 mmHg 69%
    10:00 +27°C° 0 mm 3 mps 726 mmHg 63%
    11:00 +28°C° 0.5 mm 3 mps 726 mmHg 60%
    12:00 +29°C° 0.5 mm 4 mps 726 mmHg 58%
    13:00 +29°C° 0.5 mm 4 mps 726 mmHg 55%
    14:00 +29°C° 0.2 mm 4 mps 726 mmHg 56%
    15:00 +30°C° 0.2 mm 3 mps 725 mmHg 56%
    16:00 +30°C° 0.2 mm 3 mps 725 mmHg 56%
    17:00 +28°C° 0 mm 2 mps 725 mmHg 61%
    18:00 +26°C° 0 mm 2 mps 725 mmHg 67%
    19:00 +24°C° 0 mm 2 mps 725 mmHg 72%
    20:00 +24°C° 0 mm 2 mps 725 mmHg 74%
    21:00 +23°C° 0 mm 1 mps 725 mmHg 76%
    22:00 +22°C° 0 mm 1 mps 725 mmHg 78%
    23:00 +22°C° 0 mm 1 mps 725 mmHg 79%

    28 August, Wednesday

    Time Temperature Precipitation Wind Pressure Humidity
    00:00 +21°C° 0 mm 1 mps 725 mmHg 80%
    01:00 +21°C° 0 mm 1 mps 725 mmHg 82%
    02:00 +21°C° 0 mm 1 mps 725 mmHg 83%
    03:00 +21°C° 0 mm 1 mps 724 mmHg 84%
    04:00 +20°C° 0 mm 1 mps 724 mmHg 85%
    05:00 +21°C° 0 mm 1 mps 724 mmHg 82%
    06:00 +22°C° 0 mm 1 mps 724 mmHg 80%
    07:00 +23°C° 0 mm 2 mps 724 mmHg 77%
    08:00 +24°C° 0 mm 2 mps 724 mmHg 71%
    09:00 +26°C° 0 mm 3 mps 725 mmHg 65%
    10:00 +28°C° 0 mm 4 mps 725 mmHg 60%
    11:00 +28°C° 0 mm 4 mps 724 mmHg 56%
    12:00 +29°C° 0 mm 4 mps 724 mmHg 53%
    13:00 +30°C° 0 mm 5 mps 724 mmHg 49%
    14:00 +30°C° 0 mm 4 mps 724 mmHg 50%
    15:00 +30°C° 0 mm 4 mps 723 mmHg 51%
    16:00 +30°C° 0 mm 3 mps 723 mmHg 52%
    17:00 +28°C° 0 mm 3 mps 723 mmHg 57%
    18:00 +26°C° 0 mm 2 mps 723 mmHg 61%
    19:00 +25°C° 0 mm 2 mps 722 mmHg 66%
    20:00 +24°C° 0.1 mm 2 mps 722 mmHg 68%
    21:00 +23°C° 0.1 mm 2 mps 722 mmHg 70%
    22:00 +21°C° 0.1 mm 2 mps 723 mmHg 71%
    23:00 +21°C° 0 mm 2 mps 722 mmHg 72%

    29 August, Thursday

    Time Temperature Precipitation Wind Pressure Humidity
    00:00 +21°C° 0 mm 2 mps 722 mmHg 74%
    01:00 +20°C° 0 mm 2 mps 722 mmHg 75%
    02:00 +20°C° 0 mm 2 mps 722 mmHg 77%
    03:00 +19°C° 0 mm 2 mps 722 mmHg 78%
    04:00 +19°C° 0 mm 2 mps 721 mmHg 80%
    05:00 +20°C° 0 mm 2 mps 722 mmHg 78%
    06:00 +20°C° 0 mm 2 mps 722 mmHg 76%
    07:00 +21°C° 0 mm 2 mps 722 mmHg 74%
    08:00 +24°C° 0 mm 3 mps 722 mmHg 67%
    09:00 +26°C° 0 mm 3 mps 722 mmHg 61%
    10:00 +27°C° 0 mm 4 mps 723 mmHg 55%
    11:00 +28°C° 0.1 mm 4 mps 723 mmHg 53%
    12:00 +29°C° 0.1 mm 4 mps 723 mmHg 51%
    13:00 +30°C° 0.1 mm 4 mps 723 mmHg 49%
    14:00 +29°C° 0.3 mm 4 mps 723 mmHg 52%
    15:00 +28°C° 0.3 mm 3 mps 722 mmHg 56%
    16:00 +28°C° 0.3 mm 3 mps 722 mmHg 59%
    17:00 +26°C° 0 mm 3 mps 722 mmHg 63%
    18:00 +25°C° 0 mm 2 mps 722 mmHg 67%
    19:00 +23°C° 0 mm 2 mps 722 mmHg 71%
    20:00 +23°C° 0.1 mm 1 mps 723 mmHg 70%
    21:00 +23°C° 0.1 mm 1 mps 723 mmHg 69%
    22:00 +22°C° 0.1 mm 1 mps 723 mmHg 67%
    23:00 +22°C° 0.1 mm 1 mps 724 mmHg 71%

    30 August, Friday

    Time Temperature Precipitation Wind Pressure Humidity
    00:00 +21°C° 0.1 mm 1 mps 724 mmHg 74%
    01:00 +21°C° 0.1 mm 1 mps 724 mmHg 78%
    02:00 +20°C° 0.1 mm 1 mps 724 mmHg 81%
    03:00 +20°C° 0.1 mm 1 mps 724 mmHg 84%
    04:00 +19°C° 0.1 mm 1 mps 724 mmHg 87%
    05:00 +20°C° 0.2 mm 1 mps 724 mmHg 87%
    06:00 +20°C° 0.2 mm 1 mps 725 mmHg 87%
    07:00 +21°C° 0.2 mm 1 mps 725 mmHg 87%
    08:00 +20°C° 0.1 mm 2 mps 725 mmHg 87%
    09:00 +20°C° 0.1 mm 2 mps 726 mmHg 86%
    10:00 +21°C° 0.1 mm 3 mps 726 mmHg 85%
    11:00 +21°C° 0.1 mm 3 mps 726 mmHg 83%
    12:00 +21°C° 0.1 mm 2 mps 726 mmHg 81%
    13:00 +23°C° 0.1 mm 2 mps 726 mmHg 80%
    14:00 +23°C° 0.4 mm 2 mps 726 mmHg 79%
    15:00 +23°C° 0.4 mm 2 mps 726 mmHg 79%
    16:00 +23°C° 0.4 mm 2 mps 726 mmHg 78%
    17:00 +21°C° 0.3 mm 2 mps 726 mmHg 82%
    18:00 +20°C° 0.3 mm 2 mps 725 mmHg 86%
    19:00 +19°C° 0.3 mm 2 mps 725 mmHg 90%
    20:00 +20°C° 0.1 mm 1 mps 726 mmHg 92%
    21:00 +19°C° 0.1 mm 1 mps 726 mmHg 93%
    22:00 +19°C° 0.1 mm 1 mps 726 mmHg 94%
    23:00 +19°C° 0 mm 1 mps 726 mmHg 95%
    Show more